Schneifelwetter: Wetterstation Hallschlag, 537 m . NN
Wetterdaten: Mittwoch, 15.11.2006
Datum Zeit Temp. A. Temp. 2 Feuchte A. Luftdruck Regen Wind Richtung Richtung Sonnenschein Helligkeit T Regen Taupunkt Windchill
15.11.2006 00:09 9,2 C 8,9 C 94 % 1013 hPa 0,0 l/m 15,6 km/h (3 Bft) W-SW22.5 255 0 min 0 lux 0,00 min 8,3 C 3,9 C
15.11.2006 00:24 9,0 C 8,7 C 94 % 1013 hPa 0,0 l/m 18,8 km/h (3 Bft) W-SW45 240 0 min 0 lux 0,00 min 8,1 C 2,4 C
15.11.2006 00:39 9,0 C 8,8 C 94 % 1013 hPa 0,0 l/m 30,5 km/h (5 Bft) W-SW45 245 0 min 0 lux 0,00 min 8,1 C -0,9 C
15.11.2006 00:54 9,0 C 8,8 C 94 % 1013 hPa 0,0 l/m 35,2 km/h (5 Bft) W-SW45 245 0 min 0 lux 0,00 min 8,1 C -1,8 C
15.11.2006 01:09 9,0 C 8,8 C 94 % 1013 hPa 0,0 l/m 28,7 km/h (4 Bft) SW45 230 0 min 0 lux 0,00 min 8,1 C -0,5 C
15.11.2006 01:24 9,0 C 8,8 C 94 % 1013 hPa 0,0 l/m 27,5 km/h (4 Bft) SW67.5 220 0 min 0 lux 0,00 min 8,1 C -0,2 C
15.11.2006 01:39 9,0 C 8,8 C 94 % 1013 hPa 0,0 l/m 26,8 km/h (4 Bft) W-SW67.5 250 0 min 0 lux 0,00 min 8,1 C 0,0 C
15.11.2006 01:54 9,0 C 8,8 C 94 % 1013 hPa 0,0 l/m 27,6 km/h (4 Bft) W-SW45 245 0 min 0 lux 0,00 min 8,1 C -0,2 C
15.11.2006 02:09 8,9 C 8,8 C 94 % 1013 hPa 0,0 l/m 21,8 km/h (4 Bft) SW67.5 230 0 min 0 lux 0,00 min 8,0 C 1,3 C
15.11.2006 02:24 8,9 C 8,8 C 94 % 1014 hPa 0,0 l/m 29,5 km/h (5 Bft) W-SW45 250 0 min 0 lux 0,00 min 8,0 C -0,8 C
15.11.2006 02:39 8,9 C 8,9 C 94 % 1014 hPa 0,0 l/m 27,8 km/h (4 Bft) SW67.5 230 0 min 0 lux 0,00 min 8,0 C -0,4 C
15.11.2006 02:54 9,0 C 8,8 C 94 % 1014 hPa 0,0 l/m 29,2 km/h (5 Bft) SW45 225 0 min 0 lux 0,00 min 8,1 C -0,6 C
15.11.2006 03:09 9,0 C 8,9 C 94 % 1014 hPa 0,0 l/m 31,4 km/h (5 Bft) W-SW45 245 0 min 0 lux 0,00 min 8,1 C -1,1 C
15.11.2006 03:24 9,0 C 8,9 C 94 % 1014 hPa 0,0 l/m 32,3 km/h (5 Bft) SW45 220 0 min 0 lux 0,00 min 8,1 C -1,2 C
15.11.2006 03:39 9,1 C 9,0 C 94 % 1013 hPa 0,0 l/m 34,2 km/h (5 Bft) SW45 220 0 min 0 lux 0,00 min 8,2 C -1,5 C
15.11.2006 03:54 9,0 C 9,0 C 94 % 1013 hPa 0,0 l/m 29,1 km/h (5 Bft) SW22.5 230 0 min 0 lux 0,00 min 8,1 C -0,5 C
15.11.2006 04:09 9,1 C 9,0 C 93 % 1013 hPa 0,0 l/m 29,3 km/h (5 Bft) SW45 220 0 min 0 lux 0,00 min 8,0 C -0,5 C
15.11.2006 04:24 9,1 C 9,0 C 94 % 1013 hPa 0,0 l/m 30,6 km/h (5 Bft) SW45 215 0 min 0 lux 0,00 min 8,2 C -0,7 C
15.11.2006 04:39 9,2 C 9,0 C 94 % 1013 hPa 0,0 l/m 39,3 km/h (6 Bft) SW67.5 230 0 min 0 lux 0,00 min 8,3 C -2,2 C
15.11.2006 04:54 9,2 C 9,1 C 93 % 1013 hPa 0,0 l/m 32,0 km/h (5 Bft) SW45 230 0 min 0 lux 0,00 min 8,1 C -0,9 C
15.11.2006 05:09 9,2 C 9,1 C 93 % 1013 hPa 0,0 l/m 26,1 km/h (4 Bft) SW45 230 0 min 0 lux 0,00 min 8,1 C 0,5 C
15.11.2006 05:24 9,2 C 9,1 C 93 % 1013 hPa 0,0 l/m 29,1 km/h (5 Bft) SW45 225 0 min 0 lux 0,00 min 8,1 C -0,3 C
15.11.2006 05:39 9,2 C 9,1 C 94 % 1013 hPa 0,0 l/m 25,6 km/h (4 Bft) SW45 235 0 min 0 lux 0,00 min 8,3 C 0,6 C
15.11.2006 05:54 9,2 C 9,1 C 94 % 1013 hPa 0,0 l/m 32,5 km/h (5 Bft) S-SW45 205 0 min 0 lux 0,00 min 8,3 C -1,0 C
15.11.2006 06:09 9,2 C 9,0 C 94 % 1013 hPa 0,0 l/m 30,2 km/h (5 Bft) S-SW45 205 0 min 0 lux 0,00 min 8,3 C -0,5 C
15.11.2006 06:24 9,2 C 9,0 C 94 % 1013 hPa 0,3 l/m 30,6 km/h (5 Bft) SW22.5 220 0 min 0 lux 15,00 min 8,3 C -0,6 C
15.11.2006 06:39 9,2 C 9,0 C 94 % 1013 hPa 0,0 l/m 22,7 km/h (4 Bft) SW45 215 0 min 0 lux 0,00 min 8,3 C 1,4 C
15.11.2006 06:54 9,2 C 9,0 C 95 % 1013 hPa 0,0 l/m 26,6 km/h (4 Bft) SW67.5 230 0 min 0 lux 0,00 min 8,4 C 0,3 C
15.11.2006 07:09 9,2 C 9,1 C 95 % 1013 hPa 0,0 l/m 26,1 km/h (4 Bft) SW45 215 0 min 0 lux 0,00 min 8,4 C 0,5 C
15.11.2006 07:24 9,3 C 9,1 C 95 % 1013 hPa 0,0 l/m 32,4 km/h (5 Bft) SW45 215 0 min 71 lux 0,00 min 8,5 C -0,8 C
15.11.2006 07:39 9,3 C 9,2 C 95 % 1013 hPa 0,0 l/m 29,8 km/h (5 Bft) SW45 230 0 min 257 lux 0,00 min 8,5 C -0,3 C
15.11.2006 08:00 9,5 C 9,2 C 95 % 1013 hPa 0,0 l/m 26,8 km/h (4 Bft) W-SW45 240 0 min 473 lux 0,00 min 8,7 C 0,7 C
15.11.2006 08:15 9,5 C 9,3 C 95 % 1013 hPa 0,0 l/m 29,8 km/h (5 Bft) SW45 230 0 min 647 lux 0,00 min 8,7 C -0,0 C
15.11.2006 08:30 9,6 C 9,5 C 95 % 1013 hPa 0,0 l/m 27,3 km/h (4 Bft) SW67.5 220 0 min 1,88 klux 0,00 min 8,8 C 0,7 C
15.11.2006 08:45 9,7 C 9,5 C 95 % 1013 hPa 0,0 l/m 25,8 km/h (4 Bft) SW45 215 0 min 2,65 klux 0,00 min 8,9 C 1,2 C
15.11.2006 09:00 9,8 C 9,8 C 94 % 1013 hPa 0,0 l/m 25,3 km/h (4 Bft) SW45 225 0 min 3,66 klux 0,00 min 8,9 C 1,5 C
15.11.2006 09:15 9,9 C 9,7 C 94 % 1013 hPa 0,0 l/m 22,5 km/h (4 Bft) S-SW45 205 0 min 3,49 klux 0,00 min 9,0 C 2,4 C
15.11.2006 09:30 9,9 C 9,8 C 94 % 1013 hPa 0,0 l/m 21,5 km/h (4 Bft) S-SW45 195 0 min 5,45 klux 0,00 min 9,0 C 2,7 C
15.11.2006 09:45 10,0 C 9,9 C 94 % 1013 hPa 0,0 l/m 26,2 km/h (4 Bft) S-SW22.5 210 0 min 9,6 klux 0,00 min 9,1 C 1,5 C
15.11.2006 10:00 10,0 C 9,9 C 93 % 1013 hPa 0,0 l/m 27,8 km/h (4 Bft) S-SW45 195 0 min 6,25 klux 0,00 min 8,9 C 1,1 C
15.11.2006 10:15 10,0 C 10,0 C 93 % 1013 hPa 0,0 l/m 25,3 km/h (4 Bft) S-SW45 205 0 min 6,32 klux 0,00 min 8,9 C 1,8 C
15.11.2006 10:30 10,1 C 10,0 C 93 % 1013 hPa 0,0 l/m 26,0 km/h (4 Bft) S-SW45 195 0 min 6,22 klux 0,00 min 9,0 C 1,7 C
15.11.2006 10:45 10,2 C 10,2 C 93 % 1013 hPa 0,0 l/m 22,9 km/h (4 Bft) SW45 220 0 min 11,3 klux 0,00 min 9,1 C 2,7 C
15.11.2006 11:00 10,6 C 10,5 C 93 % 1013 hPa 0,0 l/m 28,6 km/h (4 Bft) SW22.5 220 0 min 10,4 klux 0,00 min 9,5 C 1,8 C
15.11.2006 11:15 10,8 C 10,6 C 92 % 1013 hPa 0,0 l/m 24,6 km/h (4 Bft) SW67.5 225 0 min 10,3 klux 0,00 min 9,6 C 3,0 C
15.11.2006 11:30 10,9 C 10,9 C 91 % 1012 hPa 0,0 l/m 27,6 km/h (4 Bft) S-SW45 195 0 min 15,9 klux 0,00 min 9,5 C 2,4 C
15.11.2006 11:45 11,3 C 11,3 C 90 % 1012 hPa 0,0 l/m 21,3 km/h (4 Bft) SW45 215 0 min 19,3 klux 0,00 min 9,7 C 4,6 C
15.11.2006 12:00 11,3 C 11,2 C 89 % 1012 hPa 0,0 l/m 29,5 km/h (5 Bft) S22.5 185 0 min 12,8 klux 0,00 min 9,6 C 2,6 C
15.11.2006 12:15 11,3 C 11,2 C 89 % 1012 hPa 0,0 l/m 21,4 km/h (4 Bft) S-SW45 205 0 min 11,9 klux 0,00 min 9,6 C 4,6 C
15.11.2006 12:31 11,2 C 11,1 C 89 % 1012 hPa 0,0 l/m 34,6 km/h (5 Bft) S-SW45 195 0 min 11,1 klux 0,00 min 9,5 C 1,5 C
15.11.2006 12:45 11,0 C 11,0 C 89 % 1012 hPa 0,0 l/m 25,6 km/h (4 Bft) S67.5 180 0 min 13,8 klux 0,00 min 9,3 C 3,0 C
15.11.2006 13:00 11,2 C 11,1 C 89 % 1011 hPa 0,0 l/m 36,4 km/h (5 Bft) SW67.5 215 0 min 21,3 klux 0,00 min 9,5 C 1,2 C
15.11.2006 13:15 11,4 C 11,3 C 88 % 1011 hPa 0,0 l/m 25,3 km/h (4 Bft) S-SW67.5 200 0 min 15,6 klux 0,00 min 9,5 C 3,7 C
15.11.2006 13:30 11,2 C 11,2 C 88 % 1011 hPa 0,0 l/m 28,9 km/h (5 Bft) SW45 220 0 min 12,6 klux 0,00 min 9,3 C 2,6 C
15.11.2006 13:45 11,3 C 11,3 C 88 % 1011 hPa 0,0 l/m 24,0 km/h (4 Bft) S-SW45 200 0 min 13,4 klux 0,00 min 9,4 C 3,8 C
15.11.2006 14:00 11,4 C 11,2 C 87 % 1011 hPa 0,0 l/m 34,9 km/h (5 Bft) SW67.5 215 0 min 14,1 klux 0,00 min 9,3 C 1,7 C
15.11.2006 14:15 11,2 C 11,2 C 87 % 1011 hPa 0,0 l/m 24,1 km/h (4 Bft) S-SW45 200 0 min 21,0 klux 0,00 min 9,1 C 3,7 C
15.11.2006 14:30 11,0 C 11,1 C 87 % 1010 hPa 0,0 l/m 19,9 km/h (4 Bft) S-SW67.5 195 0 min 26,9 klux 0,00 min 8,9 C 4,6 C
15.11.2006 14:45 10,8 C 11,4 C 86 % 1011 hPa 0,0 l/m 25,1 km/h (4 Bft) S-SW45 205 0 min 23,1 klux 0,00 min 8,6 C 2,9 C
15.11.2006 15:00 10,5 C 10,8 C 87 % 1010 hPa 0,0 l/m 22,7 km/h (4 Bft) S22.5 190 0 min 10,7 klux 0,00 min 8,4 C 3,1 C
15.11.2006 15:15 10,4 C 10,5 C 87 % 1010 hPa 0,0 l/m 22,5 km/h (4 Bft) S22.5 190 0 min 11,0 klux 0,00 min 8,3 C 3,0 C
15.11.2006 15:30 10,4 C 10,5 C 87 % 1010 hPa 0,0 l/m 21,5 km/h (4 Bft) S45 180 0 min 10,1 klux 0,00 min 8,3 C 3,3 C
15.11.2006 15:45 10,3 C 10,3 C 87 % 1010 hPa 0,0 l/m 27,1 km/h (4 Bft) S45 190 0 min 8,25 klux 0,00 min 8,2 C 1,7 C
15.11.2006 16:00 10,2 C 9,8 C 88 % 1010 hPa 0,0 l/m 18,8 km/h (3 Bft) S22.5 170 0 min 6,44 klux 0,00 min 8,3 C 3,9 C
15.11.2006 16:15 9,9 C 9,6 C 89 % 1010 hPa 0,0 l/m 26,5 km/h (4 Bft) S22.5 180 0 min 5,09 klux 0,00 min 8,2 C 1,3 C
15.11.2006 16:30 9,7 C 9,2 C 90 % 1010 hPa 0,0 l/m 18,3 km/h (3 Bft) S22.5 175 0 min 3,27 klux 0,00 min 8,1 C 3,5 C
15.11.2006 16:45 9,4 C 8,8 C 90 % 1010 hPa 0,0 l/m 16,2 km/h (3 Bft) S-SW45 210 0 min 1,60 klux 0,00 min 7,8 C 3,9 C
15.11.2006 17:00 9,2 C 8,6 C 90 % 1010 hPa 0,0 l/m 20,7 km/h (4 Bft) S22.5 180 0 min 560 lux 0,00 min 7,6 C 2,0 C
15.11.2006 17:16 9,1 C 8,6 C 91 % 1010 hPa 0,0 l/m 16,9 km/h (3 Bft) S22.5 175 0 min 197 lux 0,00 min 7,7 C 3,3 C
15.11.2006 17:30 9,2 C 8,5 C 92 % 1010 hPa 0,0 l/m 21,7 km/h (4 Bft) S45 190 0 min 18 lux 0,00 min 8,0 C 1,7 C
15.11.2006 17:45 9,1 C 8,3 C 91 % 1009 hPa 0,0 l/m 21,4 km/h (4 Bft) S45 185 0 min 1 lux 0,00 min 7,7 C 1,7 C
15.11.2006 18:00 8,9 C 8,2 C 91 % 1009 hPa 0,0 l/m 20,0 km/h (4 Bft) S22.5 180 0 min 0 lux 0,00 min 7,5 C 1,9 C
15.11.2006 18:15 8,9 C 8,2 C 92 % 1009 hPa 0,0 l/m 23,5 km/h (4 Bft) S22.5 180 0 min 0 lux 0,00 min 7,7 C 0,8 C
15.11.2006 18:30 8,9 C 8,1 C 92 % 1009 hPa 0,0 l/m 19,6 km/h (3 Bft) S22.5 180 0 min 0 lux 0,00 min 7,7 C 2,0 C
15.11.2006 18:45 8,8 C 8,1 C 92 % 1009 hPa 0,0 l/m 20,5 km/h (4 Bft) S22.5 180 0 min 0 lux 0,00 min 7,6 C 1,6 C
15.11.2006 19:00 8,8 C 7,9 C 92 % 1009 hPa 0,0 l/m 17,0 km/h (3 Bft) S45 180 0 min 0 lux 0,00 min 7,6 C 2,8 C
15.11.2006 19:15 8,5 C 7,8 C 92 % 1009 hPa 0,0 l/m 15,4 km/h (3 Bft) SW22.5 220 0 min 0 lux 0,00 min 7,3 C 3,1 C
15.11.2006 19:30 8,5 C 7,8 C 93 % 1009 hPa 0,0 l/m 17,1 km/h (3 Bft) S45 180 0 min 0 lux 0,00 min 7,4 C 2,4 C
15.11.2006 19:45 8,4 C 7,7 C 93 % 1009 hPa 0,0 l/m 22,8 km/h (4 Bft) S-SW67.5 195 0 min 0 lux 0,00 min 7,3 C 0,3 C
15.11.2006 20:00 8,2 C 7,5 C 93 % 1009 hPa 0,0 l/m 13,5 km/h (3 Bft) S-SW45 205 0 min 0 lux 0,00 min 7,1 C 3,7 C
15.11.2006 20:15 8,2 C 7,6 C 93 % 1009 hPa 0,0 l/m 21,5 km/h (4 Bft) SW45 215 0 min 0 lux 0,00 min 7,1 C 0,5 C
15.11.2006 20:30 8,5 C 7,8 C 94 % 1009 hPa 0,0 l/m 19,3 km/h (3 Bft) S-SW45 200 0 min 0 lux 0,00 min 7,6 C 1,6 C
15.11.2006 20:45 8,7 C 8,1 C 94 % 1008 hPa 0,0 l/m 22,7 km/h (4 Bft) S-SW45 205 0 min 0 lux 0,00 min 7,8 C 0,7 C
15.11.2006 21:00 8,8 C 8,2 C 93 % 1008 hPa 0,0 l/m 31,8 km/h (5 Bft) SW45 225 0 min 0 lux 0,00 min 7,7 C -1,4 C
15.11.2006 21:15 9,1 C 8,5 C 93 % 1008 hPa 0,0 l/m 25,2 km/h (4 Bft) S-SW45 200 0 min 0 lux 0,00 min 8,0 C 0,6 C
15.11.2006 21:30 9,1 C 8,5 C 93 % 1008 hPa 0,0 l/m 27,3 km/h (4 Bft) S-SW45 195 0 min 0 lux 0,00 min 8,0 C 0,0 C
15.11.2006 21:46 9,2 C 8,5 C 93 % 1008 hPa 0,0 l/m 27,7 km/h (4 Bft) S-SW45 195 0 min 0 lux 0,00 min 8,1 C 0,1 C
15.11.2006 22:00 9,2 C 8,6 C 92 % 1008 hPa 0,0 l/m 27,0 km/h (4 Bft) S-SW45 205 0 min 0 lux 0,00 min 8,0 C 0,2 C
15.11.2006 22:15 9,3 C 8,7 C 92 % 1008 hPa 0,0 l/m 26,1 km/h (4 Bft) S-SW67.5 200 0 min 0 lux 0,00 min 8,1 C 0,6 C
15.11.2006 22:30 9,5 C 8,9 C 92 % 1008 hPa 0,0 l/m 35,0 km/h (5 Bft) SW67.5 215 0 min 0 lux 0,00 min 8,3 C -1,0 C
15.11.2006 22:45 9,4 C 8,8 C 91 % 1008 hPa 0,0 l/m 25,4 km/h (4 Bft) S-SW67.5 200 0 min 0 lux 0,00 min 8,0 C 0,9 C
15.11.2006 23:00 9,4 C 8,9 C 90 % 1008 hPa 0,0 l/m 29,0 km/h (5 Bft) S-SW45 195 0 min 0 lux 0,00 min 7,8 C 0,0 C
15.11.2006 23:15 9,4 C 8,8 C 90 % 1008 hPa 0,0 l/m 30,0 km/h (5 Bft) S-SW22.5 205 0 min 0 lux 0,00 min 7,8 C -0,2 C
15.11.2006 23:30 9,4 C 8,8 C 91 % 1008 hPa 0,0 l/m 33,6 km/h (5 Bft) S-SW22.5 200 0 min 0 lux 0,00 min 8,0 C -0,9 C
15.11.2006 23:45 9,4 C 8,9 C 90 % 1008 hPa 0,0 l/m 38,0 km/h (5 Bft) S-SW45 210 0 min 0 lux 0,00 min 7,8 C -1,7 C
_ Min-Zeit 20:00 20:00 14:45 20:45 - 20:00 - - - - - 20:00 04:39
Minimum _ 8,2 C 7,5 C 86 % 1008 hPa - 13,5 km/h (3 Bft) - - - - - 7,1 C -2,2 C
_ Max-Zeit 13:15 14:45 06:54 02:24 06:24 04:39 - - 00:09 14:30 06:24 11:45 14:30
Maximum _ 11,4 C 11,4 C 95 % 1014 hPa 0,3 l/m 39,3 km/h
SW (6 Bft)
- - 0 min 26,9 klux 15,00 min 9,7 C 4,6 C
Durchschnitt _ 9,6 C 9,3 C 92 % 1011 hPa #0,3 l/m 26,0 km/h (4 Bft) SW - #0 min. 3,88 klux #15 min. 8,3 C 1,2 C